Regional Weather Roundup
Issued by NWS

Home | Current Version | Previous Version | Graphics & Text | Print | Product List | Glossary On
Versions: 1 2 3 4 5 6 7 8 9 10 11 12 13 14 15 16 17 18 19 20 21 22 23 24 25 26 27 28 29 30 31 32 33 34 35 36 37 38 39 40 41 42 43 44 45 46 47 48 49 50
993
ASUS44 KLIX 310701
RWRLA
LOUISIANA WEATHER ROUNDUP
NATIONAL WEATHER SERVICE NEW ORLEANS LA
100 AM CST SAT JAN 31 2015

NOTE: "FAIR" INDICATES FEW OR NO CLOUDS BELOW 12,000 FEET WITH NO
      SIGNIFICANT WEATHER AND/OR OBSTRUCTIONS TO VISIBILITY.
      SKY/WX - SKY CONDITION AND SIGNIFICANT WEATHER.
      TMP - AIR TEMPERATURE.    DP   - DEWPOINT TEMPERATURE.
      RH  - RELATIVE HUMIDITY.  PRES - PRESSURE.
      HX  - HEAT INDEX.         WCI  - WIND CHILL INDEX.

*  THESE STATIONS ARE NOT NWS OR FAA STATIONS AND ARE NOT UNDER
   NWS QUALITY CONTROL.

LAZ040-048-061>063-065-066-069-310800-
SOUTHEAST LOUISIANA

CITY           SKY/WX    TMP DP  RH WIND       PRES   REMARKS
N.O. AUDUBON   NOT AVBL
N.O. INTL ARPT PTCLDY    50  36  58 E7        30.31F
N.O. LAKEFRONT PTCLDY    53  36  52 E16       30.32F
N.O. DOWNTOWN* NOT AVBL
SLIDELL        PTCLDY    38  33  82 NE3       30.32F
BATON ROUGE    CLEAR     41  32  70 NE5       30.33F
BOOTHVILLE     PTCLDY    53  42  66 NE9       30.31F
BELLE CHASSE   MOCLDY    45  35  68 NE6       30.31F
BOGALUSA*        N/A     37  32  85 CALM      30.35F
GALLIANO*      NOT AVBL
NEW ROADS*     NOT AVBL
GONZALES*      NOT AVBL
HAMMOND*       NOT AVBL
HOUMA*         PTCLDY    44  38  78 NE5       30.31S
PORT FOURCHON* SUNNY     55  43  62 NE13G18   30.33F

$$

LAZ041-044-053-054-310800-
SOUTHWEST LOUISIANA

CITY           SKY/WX    TMP DP  RH WIND       PRES   REMARKS
LAKE CHARLES   CLEAR     44  36  73 E7        30.29F
LAFAYETTE      CLEAR     43  33  68 NE3       30.31F
PATTERSON      PTCLDY    43  36  75 CALM      30.30F
SALT POINT       N/A     44  38  79 CALM      30.29F
NEW IBERIA     CLEAR     46  35  65 NE7       30.32F
CHENAULT AIRPK CLEAR     44  35  69 NE7       30.30F

$$

LAZ027-028-310800-
CENTRAL LOUISIANA

CITY           SKY/WX    TMP DP  RH WIND       PRES   REMARKS
FORT POLK      CLOUDY    44  34  68 E8        30.30F
ALEXANDRIA INT CLEAR     42  33  70 NE8       30.32F
ALEXANDRIA     CLEAR     35  33  92 NE3       30.34F

$$

LAZ001-002-310800-
NORTHWEST LOUISIANA

CITY           SKY/WX    TMP DP  RH WIND       PRES   REMARKS
SHREVEPORT     CLOUDY    45  32  60 E10       30.33F
BARKSDALE AFB  CLOUDY    44  31  60 E6        30.33F
DTN SHREVEPORT CLOUDY    45  30  55 E7        30.34F

$$

LAZ014-016-310800-
NORTHEAST LOUISIANA

CITY           SKY/WX    TMP DP  RH WIND       PRES   REMARKS
MONROE         PTCLDY    36  31  82 NE5       30.37F WCI  32
TALLULAH       CLEAR     38  31  76 NE6       30.37F WCI  33

$$




USA.gov is the U.S. government's official web portal to all federal, state and local government web resources and services.